SCP
0 0 0 0 0 0 0 0 0 0 0 0 0 0 0 0 0 0 0 0 0 0 0 0 0 0 0 0 0 0 0 0 0 0 0 0 0 0 0 0 0 0 0 0
0 0 0 0 0 0 0 0 0 0 0 0 0 0 0 0 0 0 0 0 0 0 0 0 0 0 0 0 0 0 0 0 0 0 0 0 0 0 0 0 0 0 0 0
0 0 0 0 0 0 0 0 0 0 0 0 0 0 0 0 0 0 0 0 0 0 0 0 0 0 0 0 0 0 0 0 0 0 0 0 0 0 0 0 0 0 0 0
0 0 0 0 0 0 0 0 0 0 0 0 0 0 0 0 0 0 0 0 0 0 0 0 0 0 0 0 0 0 0 0 0 0 0 0 0 0 0 0 0 0 0 0
0 0 0 0 0 0 0 0 0 0 0 0 0 0 0 0 0 0 0 0 0 0 0 0 0 0 0 0 0 0 0 0 0 0 0 0 0 0 0 0 0 0 0 0
0 0 0 0 0 0 0 0 0 0 0 0 0 0 0 0 0 0 0 0 0 0 0 0 0 0 0 0 0 0 0 0 0 0 0 0 0 0 0 0 0 0 0 0
0 0 0 0 0 0 0 0 0 0 0 0 0 0 0 0 0 0 0 0 0 0 0 0 0 0 0 0 0 0 0 0 0 0 0 0 0 0 0 0 0 0 0 0
0 0 0 0 0 0 0 0 0 0 0 0 0 0 0 0 0 0 0 0 0 0 0 0 0 0 0 0 0 0 0 0 0 0 0 0 0 0 0 0 0 0 0 0
0 0 0 0 0 0 0 0 0 0 0 0 0 0 0 0 0 0 0 0 0 0 0 0 0 0 0 0 0 0 0 0 0 0 0 0 0 0 0 0 0 0 0 0
0 0 0 0 0 0 0 0 0 0 0 0 0 0 0 0 0 0 0 0 0 0 0 0 0 0 0 0 0 0 0 0 0 0 0 0 0 0 0 0 0 0 0 0
0 0 0 0 0 0 0 0 0 0 0 0 0 0 0 0 0 0 0 0 0 0 0 0 0 0 0 0 0 0 0 0 0 0 0 0 0 0 0 0 0 0 0 0
0 0 0 0 0 0 0 0 0 0 0 0 0 0 0 0 0 0 0 0 0 0 0 0 0 0 0 0 0 0 0 0 0 0 0 0 -0 -0 0 0 0 0 0 0
0 0 0 0 0 0 0 0 0 0 0 0 0 0 0 0 0 0 0 0 0 0 0 0 0 0 0 0 0 0 0 0 0 0 0 0 -0 -0 -0 -0 0 0 0 0
0 0 0 0 0 0 0 0 0 0 0 0 0 0 0 0 0 0 0 0 0 0 0 0 0 0 0 0 0 0 0 0 0 0 0 0 0 0 0 0 0 0 0 0
0 0 0 0 0 0 0 0 0 0 -0 0 0 0 0 0 0 0 0 0 0 0 0 0 0 0 0 0 0 0 0 0 0 0 0 -0 0 0 0 0 0 0 0 0
0 0 0 0 0 0 0 0 0 0 0 0 0 0 0 0 0 0 0 0 0 0 0 0 0 0 0 0 0 0 0 0 0 0 0 -0 0 0 0 0 0 0 0 0
0 0 0 0 0 0 0 0 0 0 0 0 0 0 0 0 0 0 0 0 0 0 0 0 0 0 0 0 0 0 0 0 0 0 0 0 -0 0 0 0 0 0 0 0
0 0 0 0 0 0 0 0 0 0 0 0 0 0 0 0 0 0 0 0 0 0 0 0 0 0 0 0 0 0 0 0 0 0 0 0 -0 -0 0 0 0 0 0 0
0 0 0 0 0 0 0 0 0 0 0 0 0 0 0 0 0 0 0 0 0 0 0 0 0 0 0 0 0 0 0 0 0 0 0 -0 -0 -0 0 0 0 0 0 0
0 0 0 0 0 0 0 0 0 0 0 0 0 0 0 0 0 0 0 0 0 0 0 0 0 0 0 0 0 0 0 0 0 0 0 -0 -0 -0 0 0 0 0 0 0
0 0 0 0 0 0 0 0 0 0 0 0 0 0 0 0 0 0 0 0 0 0 0 0 0 0 0 0 0 0 0 0 0 0 0 0 0 0 0 0 0 0 0 0
0 0 0 0 0 0 0 0 0 0 0 0 0 0 0 0 0 0 0 0 0 0 0 0 0 0 0 0 0 0 0 0 0 0 0 0 0 0 0 0 0 0 0 0
0 0 0 0 0 0 0 0 0 0 0 0 0 0 0 0 0 0 0 0 0 0 0 0 0 0 0 0 0 0 0 0 0 0 0 0 0 0 0 0 0 0 0 0
0 0 0 0 0 0 0 0 0 0 0 0 0 0 0 0 0 0 0 0 0 0 0 0 0 0 0 0 0 0 0 0 0 0 0 0 0 0 0 0 0 0 0 0
0 0 0 0 0 0 0 0 0 0 0 0 0 0 0 0 0 0 0 0 0 0 0 0 0 0 0 0 0 0 0 0 0 0 0 0 0 0 0 0 0 0 0 0
0 0 0 0 0 0 0 0 0 0 0 0 0 0 0 0 0 0 0 0 0 0 0 0 0 0 0 0 0 0 0 0 0 0 0 0 0 0 0 0 0 0 0 0
0 0 0 0 0 0 0 0 0 0 0 0 0 0 0 0 0 0 0 0 0 0 0 0 0 0 0 0 0 0 0 0 0 0 0 0 0 0 0 0 0 0 0 0
Wind_Speed
7 7 6 7 9 6 7 9 9 9 8 9 6 6 6 6 5 4 4 4 3 3 1 1 1 2 2 1 2 3 4 4 3 3 3 3 2 2 3 4 4 4 5 5
3 5 6 9 10 7 7 6 6 5 6 6 3 2 3 5 6 6 5 4 4 3 2 2 1 1 2 1 1 3 4 4 3 4 4 3 3 3 4 4 4 5 5 5
4 5 5 8 8 7 5 5 6 7 7 4 3 4 5 5 6 6 5 4 4 3 2 2 1 1 1 0 1 3 4 3 4 4 4 4 4 4 4 3 3 4 4 5
2 2 5 10 7 6 6 4 5 5 5 7 7 5 5 6 7 6 5 5 4 4 3 2 2 2 2 2 2 3 4 4 4 4 4 3 4 4 3 2 3 3 4 4
3 3 7 7 4 5 5 3 4 6 6 7 5 2 2 5 7 7 6 5 5 4 4 3 3 3 3 2 3 4 4 4 4 4 4 3 3 2 1 2 3 3 4 4
4 4 7 9 5 4 5 3 3 6 7 7 7 3 7 7 7 6 5 4 4 4 3 3 3 3 4 4 4 4 4 4 4 4 3 3 2 1 1 2 3 4 4 4
4 5 8 7 4 5 3 8 5 6 6 7 10 10 7 7 8 7 6 6 5 4 3 4 4 4 4 4 5 5 5 5 4 3 2 2 1 1 2 2 3 4 4 3
3 4 9 6 4 7 10 7 7 7 6 7 8 6 7 9 9 8 7 6 6 4 4 4 4 5 5 5 5 5 5 5 4 3 1 2 2 1 2 3 4 4 3 3
6 8 8 6 7 8 8 8 9 8 7 8 9 9 9 9 9 8 8 6 5 6 5 4 4 6 6 5 5 6 5 5 4 3 2 2 2 2 2 3 3 3 3 2
4 7 6 7 7 6 8 10 11 10 8 10 11 12 11 10 9 8 7 6 5 6 6 5 5 5 6 6 6 6 6 5 4 3 2 2 2 2 2 3 3 3 3 2
6 8 7 5 6 7 8 9 9 9 9 12 13 12 12 11 10 8 7 6 6 7 7 6 6 6 6 6 6 6 5 4 4 3 3 2 2 1 2 2 4 5 4 3
9 9 7 7 7 6 7 9 11 11 10 9 12 13 13 12 11 9 8 7 7 7 7 7 7 6 6 6 7 6 5 4 3 3 3 3 3 1 2 1 3 4 4 4
10 9 8 8 7 7 7 8 10 12 12 10 10 13 14 11 11 10 9 9 9 9 8 8 7 7 7 7 7 7 6 5 4 4 4 3 3 3 2 1 1 1 3 4
10 8 7 6 7 8 8 9 9 11 11 10 11 11 13 12 10 12 12 12 10 9 9 9 9 8 8 7 7 7 6 7 6 5 5 4 5 4 4 4 3 3 5 8
12 10 9 7 6 7 7 6 6 7 9 9 10 12 14 15 15 15 13 12 10 10 10 10 10 9 8 8 8 7 6 5 5 5 5 5 5 5 5 5 5 4 3 4
10 8 7 5 5 4 4 3 4 6 8 10 11 13 16 18 17 15 13 13 13 13 12 12 12 11 10 10 9 7 6 9 8 5 5 5 5 5 6 6 6 6 6 6
8 7 6 5 4 2 1 2 1 2 4 8 12 15 15 15 14 14 15 15 15 15 14 14 14 12 12 11 10 8 7 7 10 6 5 6 5 6 6 6 7 7 8 9
8 8 6 6 4 3 1 1 2 3 2 3 8 11 13 16 18 18 18 15 13 12 13 15 14 13 13 13 11 8 7 6 6 6 6 6 5 5 5 6 7 8 6 6
6 5 5 5 4 3 2 2 3 3 4 4 2 7 12 16 18 18 17 16 16 16 16 15 18 16 14 15 14 9 8 8 7 6 7 8 7 5 5 5 6 6 6 5
13 12 11 10 9 8 7 6 7 6 5 5 4 4 7 11 13 15 17 18 18 17 16 16 16 15 15 15 16 10 10 10 8 7 7 6 6 6 6 6 6 6 7 6
9 9 10 10 9 9 9 9 8 9 9 7 6 7 8 9 11 13 15 16 17 16 15 19 16 13 13 13 16 11 11 11 10 9 8 7 7 7 7 7 7 7 7 7
5 5 6 7 8 9 10 10 10 11 11 10 9 8 8 9 9 11 16 16 15 18 16 14 14 16 16 16 12 12 12 12 10 9 8 8 8 8 8 8 8 7 7 7
7 7 8 10 11 11 11 11 12 12 11 11 11 10 9 8 7 8 10 12 10 16 16 13 17 21 22 16 12 12 13 12 11 10 9 9 9 8 8 9 8 7 7 7
8 9 9 9 10 10 11 12 12 11 11 11 11 10 9 8 7 8 9 13 16 18 15 16 22 23 22 14 11 12 12 12 11 10 10 9 8 8 8 7 7 7 7 8
8 8 7 8 8 8 9 10 10 10 10 9 9 10 8 6 7 7 7 9 15 18 15 17 22 24 18 12 12 12 11 11 11 10 9 8 8 8 7 7 8 8 7 7
8 7 7 8 8 7 7 6 7 7 7 7 7 6 5 4 4 4 5 8 12 17 16 13 15 17 14 12 12 12 11 11 12 11 10 9 9 8 7 8 9 8 7 7
8 7 6 7 7 7 7 7 7 7 7 7 7 6 5 4 4 3 3 4 6 10 12 11 11 12 12 12 11 10 10 9 9 9 8 8 7 7 8 10 8 8 7 6
Wind_Direction
221 242 259 274 275 223 202 198 201 233 237 254 252 241 230 211 197 190 182 174 170 162 164 104 65 54 71 69 73 92 103 107 117 116 111 107 84 55 48 54 64 68 67 54
276 270 286 290 280 239 212 202 213 232 253 240 238 227 207 193 188 191 185 179 170 168 173 161 115 76 71 79 82 101 107 111 106 94 90 87 83 69 62 58 62 72 71 65
258 280 315 279 244 211 201 197 191 217 235 213 224 227 211 197 192 193 187 180 182 184 185 190 200 159 153 147 98 105 108 106 103 99 92 83 81 73 69 63 72 83 80 72
217 331 253 250 246 190 181 199 190 192 197 191 206 216 208 191 184 188 188 185 186 188 193 208 218 211 197 161 130 119 116 112 112 109 103 94 85 78 70 66 77 87 84 76
164 217 264 274 252 180 165 226 205 184 193 197 184 135 262 215 187 188 190 186 192 195 197 206 216 216 185 163 142 140 140 133 125 123 119 114 109 98 83 82 82 87 89 82
174 203 238 251 239 151 108 261 244 174 188 189 147 171 248 217 184 184 187 187 195 198 185 190 211 191 172 174 161 165 160 148 130 124 129 139 146 139 116 109 107 100 87 73
215 236 258 250 181 117 154 234 221 186 193 184 186 207 216 175 174 180 186 196 192 185 182 196 191 166 171 174 178 171 151 133 122 124 142 152 142 136 126 115 108 100 93 72
207 233 257 239 165 178 210 206 200 203 207 199 200 191 170 167 174 178 187 197 188 177 191 198 175 159 167 177 169 146 137 133 131 131 143 133 129 121 125 128 122 117 105 80
200 224 247 239 213 211 179 186 202 203 205 175 167 174 175 178 181 185 190 192 180 172 180 190 176 161 166 175 156 141 138 144 145 132 116 115 130 130 120 130 132 136 130 116
237 252 261 263 254 222 198 198 201 196 187 169 175 182 181 181 183 186 189 186 171 162 169 185 182 170 171 167 155 144 149 155 150 142 132 113 105 119 126 137 139 140 142 143
251 265 278 275 266 243 222 216 206 198 187 182 179 179 181 182 183 183 181 176 166 167 175 185 181 176 174 164 152 152 160 165 162 162 156 140 116 121 148 170 174 163 171 165
242 239 227 248 259 262 236 219 208 200 199 189 180 177 177 181 182 178 175 170 169 172 177 180 176 179 179 171 160 157 165 173 173 171 170 161 150 104 42 124 141 148 159 167
229 233 224 239 257 262 245 227 214 205 199 190 182 176 174 176 180 176 173 171 173 177 178 176 175 182 185 176 167 168 175 181 180 180 180 179 175 173 186 310 333 223 208 209
237 235 247 253 260 271 265 249 223 209 203 188 178 174 174 173 173 177 180 181 177 173 174 175 178 189 191 179 174 179 182 189 186 189 191 192 194 194 189 189 212 249 248 238
242 226 223 234 251 271 274 262 235 214 202 192 179 175 176 179 182 186 185 178 171 171 176 179 184 195 191 181 182 186 186 190 193 194 198 201 203 203 204 205 206 213 222 241
235 230 221 224 245 269 293 280 239 222 206 199 191 188 187 187 188 186 183 178 175 180 183 183 190 196 189 185 187 190 195 203 195 196 201 205 209 212 216 216 214 208 212 220
215 218 212 209 201 178 83 34 2 264 224 210 208 200 192 187 186 187 189 189 188 188 185 186 194 195 191 191 191 194 196 205 205 197 201 205 207 212 214 213 214 216 221 213
208 206 191 178 173 162 133 50 36 28 4 265 230 207 193 189 191 195 195 192 189 191 192 192 193 192 194 195 195 196 195 199 199 202 208 211 212 211 204 202 204 205 214 213
55 67 69 59 50 50 32 10 353 349 358 359 300 219 207 203 201 198 193 189 192 198 202 198 194 191 195 199 196 197 197 199 203 211 212 218 218 210 201 196 197 198 196 194
29 25 27 28 21 8 360 356 347 336 330 337 326 272 234 222 212 203 195 196 202 204 199 195 196 197 199 202 199 200 201 202 202 206 211 213 213 213 209 205 200 198 198 197
9 12 7 1 354 340 331 329 326 316 311 310 303 283 257 238 223 211 202 207 212 204 195 193 196 200 202 202 201 202 204 206 205 205 206 209 214 217 217 216 212 206 202 201
317 324 318 301 293 293 294 293 290 289 291 290 285 278 269 256 238 224 215 214 210 197 196 199 201 202 201 201 203 204 205 207 208 209 208 208 209 213 217 216 216 214 207 197
267 262 259 259 257 257 261 267 270 269 270 272 272 268 261 252 240 230 230 223 208 193 194 201 201 199 198 201 205 205 206 207 208 210 211 211 211 211 213 214 211 206 196 187
275 269 267 266 265 264 264 263 262 262 261 263 262 259 257 257 252 239 234 222 208 197 200 203 198 196 196 203 204 204 206 209 210 211 210 210 211 211 210 207 201 194 187 182
283 282 283 284 281 275 271 270 270 268 267 265 262 259 256 248 245 246 238 224 207 197 203 202 195 195 197 203 201 203 205 208 210 210 208 208 210 207 203 196 190 184 179 176
285 284 283 279 279 279 279 278 276 272 269 268 267 261 256 250 248 249 247 232 212 203 203 201 198 198 200 198 200 201 203 205 207 208 208 207 207 200 193 187 181 176 173 172
292 292 292 292 290 285 285 283 278 274 269 265 267 264 256 251 250 250 254 248 221 206 204 198 191 192 194 194 195 196 198 198 196 197 198 197 191 186 182 176 173 170 167 167